Location: Gro� Glienicke
(52.4675°N, 13.1079°E)
Time: 17:43:05
(UTC+00:00)

BREEZE-M DEB (TANK) - Pass Details

Date: 06 July 2020
Orbit: 328 x 12049 km, 49.6° (Epoch: 13 August)

Event Time Altitude Azimuth Distance (km) Brightness Sun altitude
Rises 21:53:48 0° 277° (W) 4,127 6.9 -13.0°
Reaches altitude 10° 21:57:43 10° 272° (W) 2,247 5.5 -13.2°
Maximum altitude 22:01:41 39° 202° (SSW) 659 2.1 -13.4°
Enters shadow 22:02:37 28° 155° (SSE) 758 2.3 -13.4°
